Flag for U.S.A. Weather past 2 weeks in Costa Mesa, California, U.S.A.

Now
76 °F

Broken clouds.


Feels Like: 78 °F
Forecast: 67 / 78 °F
Wind: 8 mph from Southwest

Location: John Wayne Airport-Orange County Airport

Current Time: Jun 29, 2015 at 4:38:08 PM

Latest Report: Jun 29, 2015 at 3:53 PM


Visibility: 10 mi

Pressure: 29.86 "Hg

Humidity: 64%

Dew point: 63 °F

Location of Costa MesaLocation

Historic Weather in Costa Mesa — Graph

°F

Costa Mesa temperature yesterday

Maximum temperature yesterday: 85 °F (at 12:53 PM)
Minimum temperature yesterday: 68 °F (at 12:53 AM)
Average temperature yesterday: 74 °F

Past Weeks' High & Low Weather Summary

 TemperatureHumidityPressure
High85 °F (Jun 28, 12:53 PM)97% (Jun 19, 2:53 AM)30.02 "Hg (Jun 19, 2:53 AM)
Low61 °F (Jun 19, 1:53 AM)45% (Jun 28, 12:53 PM)29.76 "Hg (Jun 14, 4:53 PM)
Average69 °F75%29.89 "Hg
* Reported Jun 14 2:53 PM — Jun 29 2:53 PM, Costa Mesa, Weather by CustomWeather, © 2015

Note: Actual official high and low records may vary slightly from our data, if they occured in-between our weather recording intervals... More about our weather records

Advertising

Costa Mesa weather history for previous 24 hours

 ConditionsComfort  
Time TempWeatherWind HumidityBarometerVisibility
2:53 PM
Mon, Jun 29
78 °FBroken clouds.10 mph56%29.87 "Hg10 mi
1:53 PM80 °FBroken clouds.7 mph54%29.88 "Hg10 mi
12:53 PM81 °FPartly sunny.5 mph53%29.89 "Hg10 mi
11:53 AM79 °FPartly sunny.8 mph54%29.90 "Hg10 mi
10:53 AM80 °FPartly sunny.5 mph54%29.90 "Hg10 mi
9:53 AM76 °FBroken clouds.No wind60%29.90 "Hg10 mi
8:53 AM72 °FBroken clouds.3 mph71%29.90 "Hg10 mi
7:53 AM69 °FBroken clouds.3 mph79%29.90 "Hg10 mi
6:53 AM67 °FOvercast.No wind87%29.88 "Hg9 mi
5:53 AM67 °FPassing clouds.3 mph85%29.88 "Hg10 mi
4:53 AM68 °FClear.No wind78%29.86 "Hg10 mi
3:53 AM68 °FClear.No wind78%29.86 "Hg10 mi
2:53 AM67 °FClear.3 mph79%29.87 "Hg10 mi
1:53 AM67 °FClear.6 mph81%29.88 "Hg10 mi
12:53 AM68 °FClear.5 mph82%29.88 "Hg10 mi
11:53 PM
Sun, Jun 28
68 °FClear.7 mph82%29.89 "Hg10 mi
10:53 PM69 °FPassing clouds.8 mph79%29.89 "Hg10 mi
9:53 PM70 °FPassing clouds.8 mph76%29.88 "Hg10 mi
8:53 PM71 °FPartly sunny.7 mph71%29.85 "Hg10 mi
7:53 PM73 °FMostly cloudy.5 mph64%29.85 "Hg10 mi
6:53 PM75 °FPartly sunny.7 mph62%29.84 "Hg10 mi
4:53 PM79 °FMostly cloudy.8 mph56%29.84 "Hg10 mi
Weather by CustomWeather, © 2015

See weather overviewHow to use our weather pages